2024-247X (62398 NORAD) Tracking and Keplerian Element Data

This shows tracking and keplerian element data for the satellite.

Feedback or suggestion? Click here.




ElementValue
Catalog62398
Name2024-247X
Epoch Orbit691
Epoch Day34.93390646
Epoch Year2025
RAAN120.7525
Inclination44.996
Eccentricity0.0003051
Argument of Perigee278.4643
Mean Anonmoly81.5892
Mean Motion15.22410336
Decay Rate0.00033363
L11 62398U 24247X 25034.93390646 .00033363 00000+0 14232-2 0 9992
L22 62398 44.9960 120.7525 0003051 278.4643 81.5892 15.22410336 6913



Live tracking and technical data element details for 2024-247X (NORAD 62398). 2024-247X can be tracked NOW for your location showing map with azimuth and elevation plus other details from your city location.







IsCatalogInMostPopularTable: catalog: 62398, numindb: 12
Update: records affected: 1



GetName: 62398 2024-247X

Hit Count: updated at: Sat, 24 May 2025 17:05:33 GMT